Temp
1 2 2 2 3 1 1 -1 -1 -1 -1 -2 -3 -4 -5 -4 -3 -3 -3 -3 -4 -4 -4 -5 -5 -5 -6 -6 -6 -7 -8 -8 -8 -9 -10 -11 -11 -12 -12 -12 -12 -12 -13
2 2 1 2 1 -0 -0 -1 -2 -2 -2 -2 -4 -5 -4 -4 -4 -4 -4 -4 -4 -5 -5 -5 -6 -6 -6 -7 -7 -8 -9 -10 -10 -11 -12 -12 -12 -12 -12 -13 -13 -14 -14
1 1 1 -0 -0 -1 -1 -1 -2 -3 -3 -4 -5 -4 -4 -4 -4 -4 -5 -5 -5 -5 -6 -6 -6 -7 -7 -8 -9 -10 -10 -11 -12 -12 -12 -13 -13 -14 -14 -14 -14 -15 -15
1 -0 -1 -1 -1 -1 -2 -2 -3 -3 -5 -5 -5 -4 -4 -4 -5 -5 -5 -5 -6 -6 -6 -7 -7 -8 -8 -9 -10 -11 -12 -13 -13 -13 -13 -14 -14 -15 -16 -15 -15 -16 -16
-1 -1 -1 -1 -2 -3 -3 -3 -4 -6 -5 -5 -5 -5 -5 -5 -6 -6 -6 -6 -6 -7 -7 -8 -8 -9 -10 -11 -12 -13 -13 -14 -14 -14 -14 -15 -15 -16 -16 -17 -17 -17 -18
-1 -1 -2 -3 -3 -3 -3 -5 -6 -5 -5 -5 -5 -5 -6 -6 -6 -6 -6 -7 -7 -8 -8 -9 -9 -10 -11 -12 -13 -13 -13 -13 -14 -15 -16 -16 -17 -17 -18 -19 -19 -19 -19
-2 -3 -2 -3 -3 -3 -5 -5 -5 -5 -5 -6 -6 -6 -6 -6 -7 -7 -7 -8 -8 -9 -9 -10 -11 -12 -13 -13 -13 -13 -13 -14 -15 -16 -17 -18 -18 -19 -20 -20 -21 -22 -22
-3 -3 -3 -3 -5 -5 -5 -5 -6 -6 -6 -6 -6 -6 -6 -7 -8 -8 -8 -9 -9 -10 -11 -11 -12 -13 -12 -13 -13 -14 -15 -15 -16 -17 -18 -19 -20 -20 -22 -22 -23 -23 -24
-3 -3 -3 -4 -5 -5 -6 -6 -6 -6 -7 -7 -7 -7 -7 -7 -8 -9 -9 -9 -10 -11 -12 -12 -12 -13 -13 -14 -14 -15 -15 -16 -17 -18 -19 -20 -21 -22 -23 -24 -24 -24 -24
-4 -4 -5 -5 -6 -6 -6 -6 -6 -7 -7 -7 -8 -7 -7 -8 -9 -9 -10 -11 -11 -11 -12 -12 -13 -14 -15 -14 -15 -16 -16 -17 -18 -18 -20 -21 -22 -23 -23 -24 -24 -24 -25
-4 -4 -5 -5 -6 -6 -6 -6 -7 -7 -8 -8 -8 -8 -9 -9 -10 -10 -11 -11 -12 -12 -13 -13 -14 -14 -15 -15 -16 -17 -17 -18 -19 -20 -21 -22 -22 -23 -23 -24 -25 -25 -26
-4 -5 -5 -6 -5 -5 -5 -6 -6 -8 -8 -8 -8 -9 -10 -10 -11 -11 -11 -12 -13 -13 -13 -14 -14 -15 -15 -16 -17 -18 -18 -19 -20 -21 -22 -22 -22 -23 -24 -24 -25 -26 -27
-4 -6 -5 -5 -5 -5 -6 -7 -7 -8 -8 -8 -9 -10 -10 -11 -11 -11 -12 -13 -13 -14 -14 -14 -15 -15 -16 -17 -18 -19 -19 -20 -21 -22 -22 -22 -23 -23 -24 -24 -25 -26 -27
-6 -5 -5 -6 -6 -6 -7 -7 -8 -8 -9 -10 -10 -10 -11 -11 -12 -12 -13 -13 -14 -14 -14 -15 -15 -16 -17 -18 -19 -20 -20 -21 -22 -22 -22 -23 -23 -23 -24 -25 -25 -26 -27
-5 -5 -6 -6 -7 -7 -8 -8 -9 -9 -10 -10 -10 -11 -11 -12 -12 -12 -12 -13 -14 -14 -15 -15 -16 -17 -18 -19 -19 -20 -21 -22 -22 -22 -22 -23 -23 -24 -25 -25 -26 -27 -28
-6 -6 -7 -7 -8 -8 -8 -9 -9 -10 -10 -11 -11 -11 -12 -12 -12 -13 -13 -14 -14 -14 -15 -16 -17 -17 -18 -19 -20 -21 -22 -22 -22 -23 -23 -23 -24 -24 -25 -26 -27 -27 -28
-7 -7 -7 -8 -8 -9 -9 -10 -10 -10 -11 -11 -11 -12 -12 -12 -12 -13 -14 -14 -15 -15 -16 -16 -17 -18 -19 -20 -21 -22 -22 -22 -22 -23 -23 -24 -24 -25 -26 -26 -27 -28 -28
-7 -8 -9 -8 -8 -9 -9 -10 -10 -11 -11 -11 -11 -12 -12 -13 -13 -14 -14 -15 -15 -16 -16 -17 -18 -19 -20 -21 -22 -22 -22 -23 -23 -23 -23 -24 -25 -25 -26 -27 -27 -28 -29
-8 -8 -8 -8 -9 -10 -10 -10 -11 -11 -11 -12 -12 -12 -13 -14 -14 -14 -15 -15 -16 -17 -17 -18 -19 -20 -21 -22 -22 -23 -23 -23 -23 -23 -24 -24 -25 -26 -26 -27 -28 -28 -29
-8 -8 -9 -9 -10 -10 -11 -11 -11 -11 -11 -12 -13 -13 -14 -14 -15 -15 -16 -16 -17 -17 -18 -19 -20 -21 -21 -22 -23 -23 -23 -23 -23 -23 -24 -24 -25 -26 -27 -27 -28 -28 -29
-8 -9 -9 -10 -11 -11 -11 -11 -11 -12 -12 -13 -14 -14 -14 -15 -15 -16 -17 -17 -18 -18 -19 -20 -21 -22 -22 -23 -23 -23 -23 -24 -24 -24 -24 -24 -25 -26 -27 -28 -28 -29 -29
-10 -10 -10 -11 -11 -11 -11 -12 -12 -13 -13 -14 -14 -15 -15 -16 -16 -17 -17 -18 -18 -19 -20 -21 -22 -23 -23 -23 -24 -24 -24 -24 -24 -24 -24 -25 -25 -26 -27 -27 -28 -29 -29
-10 -11 -11 -11 -11 -12 -12 -12 -13 -13 -14 -14 -15 -16 -16 -16 -17 -17 -17 -18 -19 -20 -21 -22 -23 -23 -24 -24 -25 -25 -25 -25 -24 -24 -24 -25 -25 -26 -27 -27 -28 -29 -29
-11 -11 -11 -12 -12 -12 -12 -13 -14 -14 -15 -15 -16 -16 -16 -16 -17 -17 -18 -18 -19 -21 -22 -23 -23 -24 -25 -25 -25 -25 -25 -25 -25 -25 -25 -25 -25 -26 -27 -27 -28 -29 -29
-11 -12 -12 -12 -12 -13 -13 -14 -15 -15 -15 -16 -16 -17 -17 -17 -17 -18 -18 -19 -20 -21 -22 -23 -23 -24 -25 -25 -26 -26 -26 -26 -25 -24 -24 -24 -25 -26 -27 -27 -28 -29 -29
-12 -12 -12 -12 -13 -13 -14 -14 -15 -15 -16 -16 -17 -17 -17 -17 -18 -18 -18 -19 -20 -21 -22 -23 -23 -24 -24 -25 -25 -25 -25 -25 -25 -25 -25 -25 -25 -26 -26 -27 -28 -29 -29
Height
3048 3052 3055 3056 3056 3058 3059 3062 3063 3066 3067 3069 3073 3075 3078 3082 3084 3085 3085 3084 3083 3081 3079 3076 3072 3069 3065 3061 3056 3051 3046 3039 3032 3027 3020 3013 3006 3000 2993 2987 2980 2972 2968
3041 3042 3044 3047 3046 3050 3053 3056 3058 3063 3065 3068 3072 3077 3080 3081 3082 3081 3080 3079 3077 3076 3073 3070 3066 3063 3058 3053 3048 3042 3035 3029 3022 3013 3009 3001 2993 2986 2979 2972 2967 2961 2952
3033 3036 3037 3041 3042 3045 3051 3054 3057 3062 3063 3067 3074 3078 3077 3077 3077 3076 3075 3074 3072 3070 3067 3063 3060 3056 3051 3044 3038 3032 3025 3018 3010 3002 2995 2989 2981 2975 2969 2959 2953 2947 2939
3025 3031 3033 3038 3043 3044 3050 3052 3056 3059 3064 3071 3073 3074 3073 3073 3072 3071 3070 3068 3066 3063 3060 3056 3053 3048 3042 3035 3029 3022 3015 3007 2999 2992 2986 2977 2970 2962 2957 2947 2939 2933 2923
3019 3025 3031 3036 3041 3045 3050 3053 3055 3060 3065 3069 3069 3070 3071 3070 3069 3067 3065 3062 3059 3056 3054 3050 3045 3040 3034 3026 3018 3012 3003 2998 2989 2984 2976 2968 2959 2951 2942 2933 2924 2917 2909
3020 3026 3029 3036 3041 3047 3049 3051 3056 3060 3065 3067 3068 3068 3067 3066 3064 3062 3060 3056 3053 3050 3046 3042 3037 3031 3023 3017 3008 3000 2996 2988 2980 2975 2965 2956 2947 2938 2929 2920 2910 2902 2893
3022 3027 3031 3037 3042 3045 3050 3054 3057 3060 3064 3066 3065 3065 3064 3061 3059 3056 3054 3051 3046 3043 3038 3033 3026 3019 3011 3007 3000 2992 2986 2980 2970 2963 2954 2946 2935 2926 2917 2909 2900 2890 2882
3026 3030 3033 3037 3043 3047 3051 3054 3057 3059 3061 3062 3062 3061 3059 3057 3054 3051 3047 3045 3041 3034 3029 3022 3015 3009 3002 2999 2992 2984 2976 2967 2960 2952 2944 2936 2926 2917 2907 2896 2887 2879 2873
3028 3032 3036 3041 3046 3048 3051 3054 3055 3057 3058 3058 3057 3056 3054 3051 3048 3046 3043 3039 3031 3024 3019 3013 3008 3003 2997 2990 2979 2972 2964 2957 2951 2944 2936 2926 2916 2906 2896 2887 2879 2870 2861
3031 3034 3038 3041 3043 3046 3049 3052 3054 3055 3055 3054 3052 3050 3048 3046 3045 3041 3035 3029 3021 3017 3011 3007 3001 2998 2989 2977 2969 2962 2954 2947 2940 2933 2924 2915 2906 2898 2889 2879 2869 2860 2850
3032 3035 3037 3041 3044 3046 3048 3050 3051 3051 3051 3049 3048 3045 3043 3040 3036 3031 3026 3022 3016 3011 3005 2999 2990 2984 2976 2967 2960 2952 2944 2936 2929 2921 2913 2905 2897 2888 2880 2872 2863 2853 2843
3033 3036 3038 3041 3044 3044 3047 3047 3047 3047 3046 3046 3042 3039 3037 3033 3029 3024 3020 3015 3009 3004 2995 2989 2981 2975 2968 2959 2951 2943 2934 2926 2919 2911 2904 2897 2890 2882 2875 2866 2857 2847 2838
3035 3037 3038 3040 3043 3043 3044 3044 3044 3043 3042 3039 3037 3034 3031 3027 3025 3019 3012 3008 3001 2995 2986 2980 2973 2966 2958 2950 2941 2933 2925 2917 2910 2902 2896 2890 2883 2876 2869 2861 2853 2844 2835
3036 3037 3039 3040 3040 3040 3041 3041 3040 3039 3037 3035 3032 3029 3026 3022 3017 3011 3004 2999 2994 2987 2980 2973 2965 2957 2948 2940 2933 2925 2916 2908 2902 2896 2890 2884 2877 2870 2863 2854 2846 2837 2828
3037 3037 3037 3037 3038 3039 3038 3038 3036 3034 3033 3029 3026 3022 3019 3013 3009 3004 2997 2992 2987 2980 2972 2964 2955 2947 2939 2931 2923 2915 2908 2902 2897 2891 2884 2877 2871 2864 2856 2847 2838 2829 2820
3036 3037 3037 3036 3035 3035 3034 3034 3031 3029 3028 3024 3020 3017 3013 3008 3003 2997 2991 2984 2976 2969 2962 2954 2945 2937 2929 2922 2915 2908 2901 2896 2890 2884 2878 2871 2864 2857 2849 2841 2832 2823 2814
3035 3035 3034 3034 3032 3031 3030 3029 3027 3025 3023 3020 3016 3012 3008 3003 2996 2990 2983 2977 2970 2963 2955 2946 2937 2929 2921 2914 2907 2900 2895 2889 2884 2878 2871 2864 2857 2849 2842 2835 2827 2818 2810
3031 3031 3032 3030 3029 3028 3027 3025 3023 3020 3017 3014 3011 3006 3001 2995 2989 2983 2977 2970 2963 2954 2946 2938 2929 2920 2913 2906 2899 2893 2888 2882 2876 2871 2865 2858 2850 2842 2835 2828 2820 2812 2804
3029 3029 3029 3028 3027 3025 3023 3020 3018 3016 3012 3008 3003 2999 2994 2989 2983 2977 2970 2963 2955 2947 2938 2929 2921 2912 2905 2898 2891 2886 2880 2875 2869 2864 2858 2851 2844 2836 2829 2822 2815 2807 2798
3028 3027 3026 3025 3023 3021 3020 3017 3014 3010 3006 3003 2998 2994 2988 2983 2977 2971 2964 2957 2948 2939 2930 2921 2913 2905 2897 2891 2884 2879 2874 2868 2862 2856 2851 2844 2837 2829 2822 2815 2808 2800 2793
3025 3024 3023 3022 3020 3018 3015 3012 3009 3005 3001 2997 2993 2989 2984 2978 2972 2965 2957 2948 2939 2929 2921 2913 2905 2897 2889 2883 2877 2871 2866 2861 2855 2849 2843 2837 2830 2822 2815 2809 2802 2794 2786
3023 3022 3020 3018 3016 3013 3010 3008 3004 3000 2997 2992 2988 2983 2978 2972 2965 2958 2949 2939 2930 2922 2913 2905 2897 2889 2881 2874 2868 2862 2857 2852 2847 2841 2835 2829 2823 2815 2808 2802 2795 2787 2780
3019 3017 3015 3013 3011 3009 3006 3003 3000 2996 2992 2989 2984 2979 2973 2966 2957 2948 2939 2931 2923 2914 2905 2897 2888 2881 2873 2866 2859 2853 2848 2843 2837 2832 2826 2821 2815 2808 2801 2794 2787 2780 2773
3015 3014 3011 3009 3007 3004 3001 2998 2995 2992 2988 2984 2978 2973 2966 2958 2950 2941 2933 2924 2915 2906 2896 2888 2880 2872 2864 2856 2850 2844 2838 2834 2830 2824 2817 2811 2806 2801 2794 2786 2781 2774 2767
3010 3008 3007 3004 3002 3000 2998 2994 2991 2987 2982 2977 2972 2966 2959 2951 2943 2934 2925 2916 2907 2897 2889 2880 2872 2864 2856 2848 2842 2835 2830 2825 2819 2814 2808 2802 2798 2792 2786 2779 2773 2767 2762
3007 3005 3003 3001 2999 2996 2993 2989 2985 2981 2977 2971 2966 2959 2952 2943 2935 2926 2917 2908 2898 2889 2880 2872 2864 2855 2847 2840 2834 2828 2823 2818 2812 2807 2800 2795 2790 2784 2778 2772 2766 2761 2756
Wind_Speed
41 40 41 41 51 46 36 29 29 28 21 16 9 7 3 6 7 10 14 17 20 21 22 25 26 27 30 33 37 40 42 44 45 46 46 46 47 48 49 50 52 53 53
44 46 42 44 29 30 28 28 21 17 14 10 7 5 7 6 9 13 16 19 20 22 24 26 27 30 34 38 41 43 44 44 46 48 48 49 49 51 53 54 56 57 58
43 41 40 28 28 26 21 20 18 17 10 9 8 7 6 8 12 16 18 20 22 24 25 27 30 34 38 42 43 44 45 46 46 48 50 52 53 55 58 58 60 62 62
37 30 27 27 22 18 20 16 16 10 11 10 7 6 8 11 15 17 20 21 24 26 28 30 33 37 42 44 44 44 45 46 47 50 52 55 57 59 60 63 65 64 66
30 30 25 17 16 13 15 13 11 12 10 7 7 9 12 14 17 20 21 23 26 28 30 33 37 42 44 45 44 44 45 47 50 51 54 56 58 61 63 65 67 68 68
24 21 13 16 15 16 10 12 12 9 8 9 10 12 15 17 19 21 24 26 28 30 33 37 41 43 44 45 45 46 48 50 52 53 55 57 60 61 64 65 66 68 70
15 16 15 14 16 11 13 12 9 9 10 10 13 16 18 20 21 23 27 28 30 33 36 41 43 45 45 46 48 49 51 51 52 53 55 57 60 61 63 63 63 63 63
15 14 14 12 14 13 11 9 10 10 11 14 17 19 20 20 22 25 28 30 33 36 40 43 43 44 46 48 50 49 50 51 54 54 56 56 57 57 57 58 59 60 58
15 14 12 13 13 11 9 10 11 13 16 18 20 22 21 22 24 27 29 32 36 40 42 43 44 45 47 47 50 50 52 52 53 52 52 53 53 51 50 52 52 53 52
11 11 11 10 8 7 8 10 14 17 21 21 21 21 24 23 25 28 31 35 39 42 43 42 44 44 45 48 50 51 52 53 52 52 52 50 47 45 44 45 48 50 50
9 7 4 4 5 7 10 14 18 22 22 20 21 22 22 25 28 33 36 39 40 40 41 43 45 46 48 49 50 50 51 52 51 50 47 43 41 40 40 42 44 46 47
4 4 2 4 8 11 15 18 20 19 17 19 20 21 24 28 32 36 38 38 38 40 43 44 45 47 48 49 49 50 50 49 46 42 38 35 36 36 38 42 43 45 44
4 2 5 9 12 13 14 15 15 14 19 20 20 23 28 32 35 36 37 36 40 41 43 45 47 48 49 49 49 49 48 44 40 35 33 33 34 37 39 43 43 43 43
5 8 5 7 9 9 11 13 14 18 18 19 23 28 32 34 34 35 37 39 38 41 44 45 47 48 49 49 48 45 43 38 33 31 31 33 35 38 40 42 44 44 45
6 5 8 3 6 10 10 14 16 17 19 23 28 32 33 33 34 36 40 40 41 43 45 46 48 49 49 47 45 42 37 33 30 30 32 35 36 39 40 42 44 45 45
8 8 7 10 11 12 14 15 16 20 24 28 31 31 32 33 36 38 39 41 45 46 47 49 50 51 49 46 43 38 32 30 29 30 32 36 38 39 41 42 43 44 46
11 13 14 10 12 13 14 17 21 24 28 29 28 29 32 35 36 37 39 42 44 46 48 50 50 48 46 42 39 33 30 29 29 31 34 37 40 41 42 43 44 44 45
9 8 11 12 13 15 18 21 25 28 28 27 28 32 34 35 36 38 40 43 45 47 48 48 48 46 43 40 36 32 30 30 31 33 35 38 41 42 43 43 44 45 46
8 10 12 13 15 18 22 25 27 26 26 29 32 33 33 35 37 40 42 44 46 47 47 47 47 45 42 39 36 33 32 32 34 35 37 39 41 43 43 43 44 45 46
10 11 14 16 19 21 23 23 23 26 29 31 30 31 34 36 38 40 43 44 45 47 47 47 46 45 42 40 37 35 34 34 35 37 38 40 43 44 45 45 45 46 46
13 15 17 18 19 20 20 22 24 26 28 28 30 32 34 35 38 41 43 45 47 49 49 48 46 45 43 41 39 37 36 36 37 38 39 40 42 44 44 44 45 45 46
14 15 16 17 17 18 20 22 25 26 27 28 30 32 34 37 40 42 44 47 49 50 50 49 46 45 43 42 42 40 38 37 38 39 40 41 42 42 43 43 43 44 45
13 14 14 15 16 18 21 23 24 25 26 28 30 32 35 39 42 44 47 49 50 50 50 49 48 46 45 44 43 41 40 38 39 39 41 42 42 42 43 43 42 43 44
13 12 13 14 17 20 21 22 23 24 26 28 31 34 38 41 44 47 49 51 52 52 51 50 48 46 45 45 44 43 42 40 39 40 43 44 43 42 42 42 42 42 42
11 13 14 17 19 20 21 22 23 24 27 30 33 36 40 42 46 49 52 53 54 54 52 49 46 45 44 44 43 43 42 41 40 41 42 44 43 42 42 42 42 42 40
13 14 16 18 20 21 23 23 24 26 28 31 35 38 42 45 48 51 53 55 56 55 52 49 47 46 44 43 41 41 39 38 38 38 41 42 42 41 40 40 40 40 37
Wind_Direction
235 231 231 234 235 240 236 237 243 245 257 247 189 122 126 231 267 289 298 303 305 308 310 312 312 312 314 316 318 318 317 317 316 314 314 314 314 314 315 315 315 314 313
233 239 238 241 232 214 227 233 220 251 213 188 130 166 219 261 285 299 304 306 308 309 310 310 312 314 318 320 319 318 318 317 316 317 318 318 318 318 316 316 314 313 312
234 236 227 222 235 227 219 223 223 200 170 128 183 212 246 280 297 303 305 307 308 310 310 312 315 317 318 319 318 318 318 320 321 320 320 320 320 318 315 315 313 312 310
238 238 207 205 213 216 216 209 193 153 133 185 207 247 276 290 299 306 310 311 312 312 312 313 315 317 318 318 319 320 322 324 322 321 321 319 316 315 313 312 311 311 310
220 201 198 220 208 210 195 182 140 151 181 208 245 272 290 299 305 310 311 311 311 311 312 315 317 318 319 320 321 323 324 323 321 320 317 315 314 313 313 313 312 311 311
193 202 188 187 191 201 173 145 164 180 213 240 263 283 293 301 305 309 311 310 309 312 316 316 317 319 321 321 322 324 322 320 318 317 316 315 315 314 313 313 313 312 311
172 163 162 174 191 167 156 172 194 217 238 268 289 297 300 302 307 312 308 311 314 314 316 319 322 323 323 322 322 321 320 318 318 318 316 316 315 315 313 312 314 316 319
138 148 166 166 152 163 180 205 222 245 268 285 298 300 299 304 312 311 313 313 314 318 320 323 324 322 321 320 317 318 319 321 321 320 317 315 314 315 317 319 321 322 323
146 152 154 158 170 180 202 230 256 272 279 291 299 298 302 314 315 312 312 312 317 322 324 324 322 320 317 315 321 323 321 321 320 317 316 316 319 322 323 323 324 325 326
143 148 156 165 181 208 241 263 274 279 286 297 300 304 309 314 311 311 315 320 324 323 320 318 317 316 318 322 323 322 320 318 318 319 321 323 324 326 328 329 330 330 329
117 126 141 188 230 260 274 278 281 288 299 300 302 310 316 314 317 321 323 322 321 319 319 319 321 323 324 324 322 320 319 319 322 323 323 326 330 334 334 334 332 330 331
86 93 54 306 283 282 284 287 297 300 302 300 315 319 316 319 321 320 320 320 321 320 322 324 324 323 322 322 321 321 321 322 323 325 328 332 335 336 336 335 335 333 332
178 307 300 315 303 304 302 301 299 301 304 319 319 320 321 320 318 318 320 321 324 324 325 324 323 323 322 322 322 323 322 323 326 330 332 335 335 335 336 335 335 334 336
308 290 274 301 300 295 303 299 302 309 317 320 321 321 319 318 320 321 324 325 325 324 325 324 323 323 324 324 323 323 323 324 328 330 332 334 334 335 335 334 335 336 337
292 309 310 302 296 300 301 304 312 318 321 322 322 320 319 322 324 325 325 326 327 326 325 325 325 324 324 324 324 323 321 323 327 330 331 332 333 334 335 335 335 336 337
279 288 298 313 320 306 309 316 319 321 322 321 321 321 322 325 325 327 328 327 328 328 328 327 326 325 325 323 322 320 319 322 326 329 329 330 331 333 334 334 334 335 335
270 284 294 297 304 313 317 319 322 320 319 320 321 323 325 325 327 328 329 329 329 328 327 326 325 325 322 320 318 316 318 321 325 327 328 329 329 331 332 332 332 333 333
264 285 301 311 316 319 318 316 318 321 321 323 326 326 327 328 329 331 331 330 329 329 329 327 325 324 322 320 317 315 317 319 321 324 326 326 327 328 329 330 330 329 330
307 309 310 313 315 314 315 317 318 320 325 327 327 327 328 330 332 332 332 331 331 331 329 328 326 325 322 320 316 313 314 316 318 320 323 323 323 324 325 326 327 326 326
308 311 314 312 309 311 313 316 322 327 326 324 325 328 331 333 334 333 332 332 333 332 331 330 328 325 321 317 314 311 312 313 314 317 320 321 322 322 321 323 324 323 325
306 304 300 302 308 313 319 322 321 322 323 326 329 331 332 333 334 333 334 335 336 335 333 330 328 325 321 317 314 311 311 312 312 315 318 320 321 320 318 320 320 320 322
294 297 306 311 314 316 319 320 321 323 326 329 331 332 333 335 334 336 338 338 337 334 331 329 327 325 321 317 313 312 310 311 312 314 316 319 320 321 320 320 319 318 319
305 306 307 312 314 315 318 321 323 325 327 329 331 333 335 336 337 339 340 338 335 332 330 328 326 324 321 318 316 313 311 310 310 313 314 316 319 320 321 321 320 320 319
302 306 306 307 316 320 321 323 324 326 328 331 333 335 337 338 339 340 339 336 334 331 330 329 327 325 322 319 318 317 315 313 312 313 313 315 317 320 320 319 319 320 320
298 303 313 316 317 319 320 322 326 329 331 333 335 337 338 338 339 340 337 335 333 332 332 330 328 326 323 321 318 316 316 318 317 316 314 315 318 320 319 318 317 319 321
301 304 311 317 319 322 325 326 328 329 330 333 335 336 338 339 340 339 336 334 333 332 332 330 327 323 321 320 318 316 315 316 315 313 312 315 319 319 317 315 313 315 319